7 * 24
多渠道服务支持
STARLINK-32641 是 SpaceX Starlink 项目中的一颗低轨通信卫星,属于第 6 批次发射的星链卫星群。该卫星于 2023 年发射,运行在约 550 公里的轨道高度,旨在为全球用户提供高速互联网服务。作为星链网络的一部分,它通过 KU/Ka 频段与地面用户终端通信,支持宽带接入,尤其在偏远地区具有重要意义。该卫星采用可重复使用设计,具备自主变轨和避碰能力,有助于提升星座的稳定性和可持续性。
美国
(US)
| 数据来源 | 国际轨道数据 |
| 星历时间: | 2025-12-20T05:53:01+0800 12小时前 查看轨道信息 |
| 半长轴: | 6853.365km |
| 偏心率: | 0.0000162 |
| 轨道倾角: | 53.156° |
| 近地点辐角 | 51.028° |
| 升交点赤经 | 217.435° |
| 平近点角 | 309.073° |
| 近地点: | 475.116km |
| 远地点: | 475.34km |
| 周期: | 94.106分钟 |
| 每日圈数: | 15.30196 |